DW9947 Daphne AL US current weather conditions

sailwx.info

Wind from 333 at 10 knots

Air temperature 15.0° C
Dewpoint 6.8° C

Last reported at 2019-Nov-15 20:02 UTC.
Time now 2019-Nov-15 20:40 UTC

Location: N 30°36' W 087°55'.
View on Google Maps.

See reports from other nearby stations

  
Tides and Currents Weather Stations Pressure Air Temp Water Temp Dewpoint Dewpoint Depression Visibility Wind Speed Wind Dir Waves Ship Positions
date/time (UTC)wind fromknots sea level pressurealtimeterstation pressurevisibilityair tempwater tempwave heightnotes
2019-Nov-15 20:02 333 10 15.0
2019-Nov-15 18:17 319 10 13.9
2019-Nov-15 18:02 318 6 13.3
2019-Nov-15 17:47 338 6 13.3
2019-Nov-15 17:17 329 5 12.8
2019-Nov-15 16:47 327 9 11.7
2019-Nov-15 16:32 318 6 11.7
2019-Nov-15 16:17 326 8 11.1
2019-Nov-15 15:47 320 3 10.6
2019-Nov-15 15:17 323 4 9.4
2019-Nov-15 15:02 318 4 8.9
2019-Nov-15 14:47 325 5 8.3
2019-Nov-15 14:32 322 5 8.3
2019-Nov-15 14:02 321 3 7.8
2019-Nov-15 13:47 084 6 7.2
2019-Nov-15 13:32 028 2 7.2
2019-Nov-15 13:02 354 0 6.7
2019-Nov-15 12:47 322 0 6.7
2019-Nov-15 12:17 091 1 6.7
2019-Nov-15 12:02 335 1 6.7
2019-Nov-15 11:32 330 1 7.2
2019-Nov-15 11:17 036 5 7.2
2019-Nov-15 11:02 340 8 7.8
2019-Nov-15 10:47 317 13 7.8
2019-Nov-15 10:32 323 10 7.8
2019-Nov-15 08:02 327 0 7.2
2019-Nov-15 07:47 325 0 7.2
2019-Nov-15 07:32 325 7.2
2019-Nov-15 07:17 324 7.2
2019-Nov-15 06:17 347 2 7.2
2019-Nov-15 05:47 319 1 7.2
2019-Nov-15 05:32 304 2 7.8
2019-Nov-15 05:17 326 2 7.8
2019-Nov-15 05:02 319 2 7.8
2019-Nov-15 04:32 344 7.8
2019-Nov-15 04:17 354 0 7.8
2019-Nov-15 04:02 352 0 7.8
2019-Nov-15 03:47 321 1 7.8
2019-Nov-15 03:32 354 7.2
2019-Nov-15 03:17 321 0 7.2
2019-Nov-15 03:02 313 7.2
2019-Nov-15 02:47 312 0 7.2
2019-Nov-15 02:02 035 1 7.8
2019-Nov-15 01:47 356 7.2
2019-Nov-15 01:32 354 7.2
2019-Nov-15 01:17 354 0 7.8
2019-Nov-15 00:47 329 7.8
2019-Nov-15 00:32 322 7.8
2019-Nov-15 00:17 322 7.8
2019-Nov-15 00:02 312 7.8
2019-Nov-14 23:32 315 8.3
2019-Nov-14 23:17 313 8.3
2019-Nov-14 23:02 312 8.9
2019-Nov-14 22:32 315 0 9.4
2019-Nov-14 22:17 356 0 9.4
2019-Nov-14 22:02 339 0 10.0
2019-Nov-14 21:47 323 1 10.0
2019-Nov-14 21:32 313 1 10.0
2019-Nov-14 21:17 317 3 10.0
2019-Nov-14 21:02 321 0 10.0
2019-Nov-14 20:32 310 5 10.0
2019-Nov-14 20:17 319 0 10.0
2019-Nov-14 20:02 318 3 10.6
2019-Nov-14 19:47 322 3 10.6
2019-Nov-14 19:32 320 2 10.6
2019-Nov-14 19:17 317 0 10.6
2019-Nov-14 19:02 317 1 11.1
2019-Nov-14 18:47 317 0 11.1
2019-Nov-14 18:32 317 0 11.1
2019-Nov-14 18:02 317 11.1
2019-Nov-14 17:47 317 10.6
2019-Nov-14 17:17 316 3 10.0
2019-Nov-14 17:02 316 2 10.0
2019-Nov-14 16:47 315 1 10.0
2019-Nov-14 16:32 315 9.4
2019-Nov-14 16:17 315 0 9.4
2019-Nov-14 15:47 315 9.4
2019-Nov-14 15:32 315 8.9
2019-Nov-14 15:17 315 8.9
2019-Nov-14 15:02 315 8.9
2019-Nov-14 14:47 315 0 8.9
2019-Nov-14 14:32 315 0 8.3
2019-Nov-14 14:17 315 0 7.8
2019-Nov-14 14:02 345 0 7.8
2019-Nov-14 13:47 345 7.8
2019-Nov-14 13:32 345 1 7.2
2019-Nov-14 13:17 348 0 7.2
2019-Nov-14 13:02 348 0 6.7
2019-Nov-14 12:47 348 0 6.7
2019-Nov-14 12:32 348 0 6.7
2019-Nov-14 12:17 348 0 6.7
2019-Nov-14 12:02 347 6.7
2019-Nov-14 11:47 347 6.7
2019-Nov-14 11:32 346 0 6.7
2019-Nov-14 11:17 346 0 6.7
2019-Nov-14 11:02 346 0 6.7
2019-Nov-14 10:47 343 0 6.7
2019-Nov-14 10:32 343 0 6.7
2019-Nov-14 10:17 342 0 7.2
2019-Nov-14 10:02 342 0 7.2
2019-Nov-14 09:32 340 0 7.2
2019-Nov-14 09:17 340 0 7.2
2019-Nov-14 09:02 335 0 7.2
2019-Nov-14 08:47 329 0 7.2
2019-Nov-14 08:32 328 0 7.2
2019-Nov-14 08:17 325 0 7.2
2019-Nov-14 08:02 321 0 7.2
2019-Nov-14 07:47 320 0 7.2
2019-Nov-14 07:32 317 0 7.2
2019-Nov-14 07:17 271 0 7.2
2019-Nov-14 06:47 275 0 7.2
2019-Nov-14 06:32 266 7.2
2019-Nov-14 06:17 266 7.2
2019-Nov-14 06:02 266 7.2
2019-Nov-14 05:32 266 7.2
2019-Nov-14 05:02 266 7.2
2019-Nov-14 03:32 266 7.2
2019-Nov-14 03:17 266 7.2
2019-Nov-14 03:02 266 7.2
2019-Nov-14 02:47 266 7.2
2019-Nov-14 02:32 266 7.2
2019-Nov-14 02:17 266 7.8
2019-Nov-14 01:47 266 7.8
2019-Nov-14 01:32 266 7.8
2019-Nov-14 01:02 266 7.2
2019-Nov-14 00:32 266 6.7
2019-Nov-14 00:17 266 6.7
2019-Nov-14 00:02 266 6.7
2019-Nov-13 23:47 266 6.7
2019-Nov-13 23:32 266 6.7
2019-Nov-13 23:17 266 7.2
2019-Nov-13 22:32 266 9.4
2019-Nov-13 22:17 266 10.6
2019-Nov-13 22:02 266 10.0
2019-Nov-13 21:47 266 10.0
2019-Nov-13 21:32 266 10.0
2019-Nov-13 21:17 266 9.4
2019-Nov-13 21:02 266 9.4
2019-Nov-13 20:47 266 1 8.3
2019-Nov-13 20:17 243 1 7.8
2019-Nov-13 20:02 242 1 7.8